Weather History for Palm Springs, CA

Change the Weather History Date:

Sunday, April 15, 2012

  Actual Average Record
Temperature  
Mean Temperature 65 °F 71 °F  
Max Temperature 82 °F 84 °F 105 °F (1947)
Min Temperature 48 °F 57 °F 36 °F (1976)
Degree Days  
Heating Degree Days 0 1  
Month to date heating degree days 16 15  
Since 1 July heating degree days 771 866  
Cooling Degree Days 0 6  
Month to date cooling degree days 57 80  
Year to date cooling degree days 178 200  
Growing Degree Days 16 (Base 50)    
Moisture  
Dew Point 37 °F    
Average Humidity 42    
Maximum Humidity 66    
Minimum Humidity 18    
Precipitation  
Precipitation 0.00 in 0.01 in 0.13 in (1988)
Month to date precipitation 0.10 0.06  
Year to date precipitation 0.69 2.70  
Since 1 July precipitation 2.17 5.50  
Snow  
Snow 0.00 in - - ()
Month to date snowfall 0.0  
Year to date snowfall 0.0  
Since 1 July snowfall 0.0  
Snow Depth 0.00 in    
Sea Level Pressure  
Sea Level Pressure 30.05 in    
Wind  
Wind Speed 2 mph (NW)    
Max Wind Speed 9 mph    
Max Gust Speed 14 mph    
Visibility 10 miles    
Events      
T = Trace of Precipitation, MM = Missing Value Source: NWS Daily Summary

Daily Weather History Graph

Daily Weather History Graph

Search for Another Location

Airport:

Trip Planner

Search our weather history database for the weather conditions in past years. The results will help you decide how hot, cold, wet, or windy it might be!

Date:

Astronomy

Apr. 15, 2012 Rise Set
Actual Time 6:14 AM PDT 7:17 PM PDT
Civil Twilight 5:48 AM PDT 7:43 PM PDT
Nautical Twilight 5:18 AM PDT 8:13 PM PDT
Astronomical Twilight 4:47 AM PDT 8:45 PM PDT
Moon 3:00 AM PDT (4/15) 2:30 PM PDT (4/15)
Length of Visible Light 13h 54m
Length of Day
13h 03m
Waning Crescent, 26% of the Moon is Illuminated
Apr 15
Waning Crescent
Apr 21
New
Apr 29
First Quarter
May 5
Full
May 12
Last Quarter

Hourly Weather History & Observations

Time (PDT) Temp. Dew Point Humidity Pressure Visibility Wind Dir Wind Speed Gust Speed Precip Events Conditions
12:53 AM 57.0 °F 36.0 °F 45% 30.01 in 10.0 mi NW 5.8 mph - N/A   Clear
1:53 AM 54.0 °F 37.9 °F 55% 30.01 in 10.0 mi Calm Calm - N/A   Clear
2:53 AM 54.0 °F 37.0 °F 53% 30.02 in 10.0 mi Calm Calm - N/A   Clear
3:53 AM 52.0 °F 37.9 °F 59% 30.03 in 10.0 mi Calm Calm - N/A   Clear
4:53 AM 52.0 °F 39.0 °F 61% 30.04 in 10.0 mi Calm Calm - N/A   Clear
5:53 AM 51.1 °F 39.0 °F 63% 30.05 in 10.0 mi Calm Calm - N/A   Clear
6:53 AM 50.0 °F 39.9 °F 68% 30.08 in 10.0 mi Calm Calm - N/A   Clear
7:53 AM 55.0 °F 39.0 °F 55% 30.11 in 10.0 mi Calm Calm - N/A   Clear
8:53 AM 60.1 °F 37.0 °F 42% 30.10 in 10.0 mi Calm Calm - N/A   Clear
9:53 AM 63.0 °F 35.1 °F 35% 30.11 in 10.0 mi Calm Calm - N/A   Clear
10:53 AM 68.0 °F 35.1 °F 30% 30.11 in 10.0 mi Calm Calm - N/A   Clear
11:53 AM 72.0 °F 36.0 °F 27% 30.09 in 10.0 mi Calm Calm - N/A   Clear
12:53 PM 75.0 °F 37.0 °F 25% 30.07 in 10.0 mi Variable 4.6 mph - N/A   Clear
1:53 PM 79.0 °F 34.0 °F 20% 30.05 in 10.0 mi Variable 4.6 mph - N/A   Clear
2:53 PM 79.0 °F 34.0 °F 20% 30.03 in 10.0 mi Variable 3.5 mph - N/A   Scattered Clouds
3:53 PM 81.0 °F 33.1 °F 18% 30.00 in 10.0 mi NE 6.9 mph - N/A   Scattered Clouds
4:53 PM 80.1 °F 34.0 °F 19% 29.99 in 10.0 mi Calm Calm - N/A   Scattered Clouds
5:53 PM 81.0 °F 36.0 °F 20% 29.99 in 10.0 mi NW 10.4 mph - N/A   Clear
6:53 PM 78.1 °F 35.1 °F 21% 29.98 in 10.0 mi NW 9.2 mph - N/A   Scattered Clouds
7:53 PM 73.9 °F 39.0 °F 28% 30.00 in 10.0 mi South 5.8 mph - N/A   Clear
8:53 PM 70.0 °F 39.0 °F 32% 30.04 in 10.0 mi SE 9.2 mph - N/A   Clear
9:53 PM 70.0 °F 36.0 °F 29% 30.06 in 10.0 mi SE 6.9 mph - N/A   Clear
10:53 PM 68.0 °F 45.0 °F 43% 30.07 in 10.0 mi NNW 5.8 mph - N/A   Clear
11:53 PM 66.9 °F 45.0 °F 45% 30.08 in 10.0 mi NW 6.9 mph - N/A   Clear